Perryton, TX

12:26 AM CST on February 23, 2017 (GMT -0600)
Perryton Ochiltree County

Weather History for KPYX - November, 2011

Change the Weather History Date:

Monday, November 14, 2011

  Actual Average Record
Temperature  
Mean Temperature 51 °F -  
Max Temperature 60 °F 58 °F 76 °F (1973)
Min Temperature 41 °F 30 °F 10 °F (1986)
Degree Days  
Heating Degree Days 14    
Growing Degree Days 1 (Base 50)    
Moisture  
Dew Point 33 °F    
Average Humidity 48    
Maximum Humidity 70    
Minimum Humidity 31    
Precipitation  
Precipitation 0.00 in - - ()
Sea Level Pressure  
Sea Level Pressure 29.77 in    
Wind  
Wind Speed 15 mph (South)    
Max Wind Speed 25 mph    
Max Gust Speed 36 mph    
Visibility 10 miles    
Events      
Averages and records for this station are not official NWS values.
T = Trace of Precipitation, MM = Missing Value Source: NWS Daily Summary

Daily Weather History Graph

Daily Weather History Graph

Search for Another Location

Airport or City:

Trip Planner

Search our weather history database for the weather conditions in past years. The results will help you decide how hot, cold, wet, or windy it might be!

Date:

Astronomy

Nov. 14, 2011 Rise Set
Actual Time 7:19 AM CST 5:35 PM CST
Civil Twilight 6:51 AM CST 6:02 PM CST
Nautical Twilight 6:20 AM CST 6:33 PM CST
Astronomical Twilight 5:50 AM CST 7:04 PM CST
Moon 8:46 PM CST (11/14) 10:36 AM CST (11/14)
Length of Visible Light 11h 11m
Length of Day
10h 16m
Waning Gibbous, 86% of the Moon is Illuminated
Nov 14
Waning Gibbous
Nov 18
Last Quarter
Nov 25
New
Dec 2
First Quarter
Dec 10
Full

Hourly Weather History & Observations

Time (CST) Temp. Windchill Dew Point Humidity Pressure Visibility Wind Dir Wind Speed Gust Speed Precip Events Conditions
12:15 AM 60.8 °F - 37.4 °F 42% 29.65 in 10.0 mi WSW 20.7 mph 26.5 mph N/A   Clear
12:35 AM 60.8 °F - 37.4 °F 42% 29.66 in 10.0 mi WSW 24.2 mph 29.9 mph N/A   Clear
12:55 AM 60.8 °F - 37.4 °F 42% 29.66 in 10.0 mi WSW 25.3 mph 31.1 mph N/A   Clear
1:15 AM 60.8 °F - 37.4 °F 42% 29.66 in 10.0 mi WSW 20.7 mph 26.5 mph N/A   Clear
1:35 AM 60.8 °F - 37.4 °F 42% 29.66 in 10.0 mi WSW 25.3 mph 35.7 mph N/A   Clear
1:55 AM 60.8 °F - 37.4 °F 42% 29.67 in 10.0 mi WSW 24.2 mph 33.4 mph N/A   Clear
2:15 AM 60.8 °F - 37.4 °F 42% 29.68 in 10.0 mi WSW 21.9 mph 31.1 mph N/A   Clear
2:55 AM 60.8 °F - 39.2 °F 45% 29.69 in 10.0 mi WSW 23.0 mph 27.6 mph N/A   Clear
3:35 AM 60.8 °F - 39.2 °F 45% 29.71 in 10.0 mi West 21.9 mph 26.5 mph N/A   Clear
3:55 AM 59.0 °F - 39.2 °F 48% 29.72 in 10.0 mi West 17.3 mph - N/A   Clear
4:15 AM 57.2 °F - 39.2 °F 51% 29.73 in 10.0 mi West 13.8 mph - N/A   Clear
4:35 AM 55.4 °F - 39.2 °F 54% 29.75 in 10.0 mi West 13.8 mph - N/A   Clear
5:15 AM 53.6 °F - 39.2 °F 58% 29.76 in 10.0 mi WNW 12.7 mph - N/A   Clear
5:35 AM 53.6 °F - 39.2 °F 58% 29.76 in 10.0 mi NW 12.7 mph - N/A   Clear
6:15 AM 50.0 °F - 37.4 °F 62% 29.78 in 10.0 mi NW 9.2 mph - N/A   Clear
6:35 AM 48.2 °F - 35.6 °F 62% 29.80 in 10.0 mi NW 8.1 mph - N/A   Clear
7:15 AM 44.6 °F 41.4 °F 33.8 °F 66% 29.81 in 10.0 mi WNW 5.8 mph - N/A   Clear
7:35 AM 42.8 °F 40.1 °F 33.8 °F 70% 29.81 in 10.0 mi NW 4.6 mph - N/A   Clear
7:55 AM 44.6 °F 42.2 °F 33.8 °F 66% 29.83 in 10.0 mi North 4.6 mph - N/A   Clear
8:15 AM 44.6 °F 42.2 °F 33.8 °F 66% 29.83 in 10.0 mi NNW 4.6 mph - N/A   Clear
8:35 AM 46.4 °F 43.5 °F 33.8 °F 62% 29.84 in 10.0 mi NNW 5.8 mph - N/A   Clear
8:55 AM 46.4 °F 44.3 °F 33.8 °F 62% 29.85 in 10.0 mi North 4.6 mph - N/A   Clear
9:15 AM 46.4 °F 44.3 °F 32.0 °F 57% 29.86 in 10.0 mi North 4.6 mph - N/A   Clear
9:35 AM 50.0 °F - 32.0 °F 50% 29.87 in 10.0 mi Calm Calm - N/A   Clear
9:55 AM 50.0 °F - 32.0 °F 50% 29.87 in 10.0 mi Calm Calm - N/A   Clear
10:15 AM 51.8 °F - 32.0 °F 47% 29.88 in 10.0 mi South 4.6 mph - N/A   Clear
10:35 AM 53.6 °F - 32.0 °F 44% 29.87 in 10.0 mi SSE 5.8 mph - N/A   Clear
10:55 AM 53.6 °F - 30.2 °F 41% 29.86 in 10.0 mi SSE 5.8 mph - N/A   Clear
11:15 AM 53.6 °F - 32.0 °F 44% 29.87 in 10.0 mi South 8.1 mph - N/A   Clear
11:35 AM 55.4 °F - 32.0 °F 41% 29.86 in 10.0 mi South 6.9 mph - N/A   Clear
11:55 AM 55.4 °F - 32.0 °F 41% 29.85 in 10.0 mi SSW 3.5 mph - N/A   Clear
12:15 PM 55.4 °F - 32.0 °F 41% 29.84 in 10.0 mi South 4.6 mph - N/A   Clear
12:35 PM 57.2 °F - 32.0 °F 38% 29.82 in 10.0 mi SSE 6.9 mph - N/A   Clear
12:55 PM 59.0 °F - 30.2 °F 34% 29.81 in 10.0 mi SSE 11.5 mph - N/A   Clear
1:15 PM 59.0 °F - 30.2 °F 34% 29.81 in 10.0 mi SSE 11.5 mph - N/A   Clear
1:35 PM 59.0 °F - 30.2 °F 34% 29.80 in 10.0 mi SE 11.5 mph - N/A   Clear
1:55 PM 59.0 °F - 30.2 °F 34% 29.79 in 10.0 mi SSE 11.5 mph - N/A   Clear
2:15 PM 59.0 °F - 30.2 °F 34% 29.79 in 10.0 mi SSE 16.1 mph - N/A   Clear
2:35 PM 59.0 °F - 30.2 °F 34% 29.78 in 10.0 mi SSE 12.7 mph - N/A   Clear
2:55 PM 60.8 °F - 30.2 °F 31% 29.77 in 10.0 mi SSE 12.7 mph - N/A   Clear
3:15 PM 60.8 °F - 30.2 °F 31% 29.76 in 10.0 mi SSE 12.7 mph - N/A   Clear
3:35 PM 60.8 °F - 30.2 °F 31% 29.76 in 10.0 mi SSE 16.1 mph 19.6 mph N/A   Clear
3:55 PM 60.8 °F - 30.2 °F 31% 29.75 in 10.0 mi SSE 17.3 mph - N/A   Clear
4:15 PM 59.0 °F - 30.2 °F 34% 29.75 in 10.0 mi SE 19.6 mph - N/A   Clear
4:35 PM 59.0 °F - 30.2 °F 34% 29.75 in 10.0 mi SSE 17.3 mph - N/A   Clear
4:55 PM 59.0 °F - 30.2 °F 34% 29.74 in 10.0 mi SSE 16.1 mph - N/A   Clear
5:35 PM 53.6 °F - 30.2 °F 41% 29.75 in 10.0 mi SE 12.7 mph - N/A   Clear
5:55 PM 51.8 °F - 30.2 °F 44% 29.74 in 10.0 mi SE 11.5 mph - N/A   Clear
6:15 PM 50.0 °F - 32.0 °F 50% 29.74 in 10.0 mi SE 9.2 mph - N/A   Clear
6:35 PM 48.2 °F - 32.0 °F 54% 29.75 in 10.0 mi SE 5.8 mph - N/A   Clear
6:55 PM 46.4 °F 41.5 °F 32.0 °F 57% 29.75 in 10.0 mi SSE 10.4 mph - N/A   Clear
7:15 PM 46.4 °F 43.5 °F 32.0 °F 57% 29.76 in 10.0 mi SE 5.8 mph - N/A   Clear
7:35 PM 44.6 °F 40.2 °F 32.0 °F 61% 29.76 in 10.0 mi SE 8.1 mph - N/A   Clear
7:55 PM 44.6 °F 39.2 °F 32.0 °F 61% 29.76 in 10.0 mi SE 10.4 mph - N/A   Clear
8:15 PM 44.6 °F 39.7 °F 30.2 °F 57% 29.76 in 10.0 mi SE 9.2 mph - N/A   Clear
8:35 PM 42.8 °F 38.0 °F 30.2 °F 61% 29.76 in 10.0 mi SE 8.1 mph - N/A   Clear
8:55 PM 42.8 °F 38.6 °F 32.0 °F 66% 29.76 in 10.0 mi SE 6.9 mph - N/A   Clear
9:15 PM 41.0 °F 35.8 °F 30.2 °F 65% 29.76 in 10.0 mi SSE 8.1 mph - N/A   Clear
9:35 PM 42.8 °F 38.6 °F 32.0 °F 66% 29.76 in 10.0 mi SSE 6.9 mph - N/A   Clear
9:55 PM 42.8 °F 38.6 °F 32.0 °F 66% 29.75 in 10.0 mi SSE 6.9 mph - N/A   Clear
10:15 PM 41.0 °F 35.8 °F 32.0 °F 70% 29.75 in 10.0 mi SSE 8.1 mph - N/A   Clear
10:35 PM 37.4 °F 32.8 °F 32.0 °F 81% 29.75 in 10.0 mi SSE 5.8 mph - N/A   Clear
10:55 PM 37.4 °F 32.1 °F 32.0 °F 81% 29.75 in 10.0 mi SSE 6.9 mph - N/A   Clear
11:15 PM 37.4 °F 32.1 °F 32.0 °F 81% 29.74 in 10.0 mi South 6.9 mph - N/A   Clear
11:35 PM 37.4 °F 31.4 °F 32.0 °F 81% 29.74 in 10.0 mi SSE 8.1 mph - N/A   Clear
11:55 PM 39.2 °F 33.0 °F 33.8 °F 81% 29.73 in 10.0 mi SSE 9.2 mph - N/A   Clear